EW0890 Weather Reports


time (UTC)temp
C
wind
direction
speed
KPH
gust
KPH
rain 1hr
cm
rain 24hr
cm
rain mn
cm
humidity
%
barometer
mb
20260505093018 11 315 1.6 4.8 0.00 0.89 0.00 82 1006.5
20260505092507 11 328 0.0 3.2 0.00 0.89 0.00 80 1006.1
20260505092008 11 278 0.0 4.8 0.00 0.89 0.00 80 1006.4
20260505091527 11 333 1.6 4.8 0.00 0.89 0.00 80 1006.7
20260505091004 11 326 1.6 4.8 0.00 0.89 0.00 81 1006.6
20260505090507 11 311 1.6 1.6 0.00 0.89 0.00 81 1006.6
20260505090038 12 287 0.0 3.2 0.00 0.89 0.00 83 1006.8
20260505085515 12 286 0.0 3.2 0.00 0.89 0.00 81 1006.6
20260505085010 12 313 1.6 3.2 0.00 0.89 0.00 81 1006.6
20260505084525 12 306 1.6 3.2 0.00 0.89 0.00 81 1006.4
20260505084004 12 295 0.0 3.2 0.00 0.89 0.00 82 1006.4
20260505083505 12 315 0.0 4.8 0.00 0.89 0.00 84 1006.3
20260505083015 12 301 0.0 4.8 0.00 0.89 0.00 88 1006.1
20260505082504 12 294 1.6 4.8 0.00 0.89 0.00 88 1005.8
20260505082007 12 253 0.0 3.2 0.00 0.89 0.00 90 1005.7
20260505081521 12 253 1.6 3.2 0.00 0.89 0.00 90 1005.6
20260505081005 12 250 0.0 3.2 0.00 0.89 0.00 90 1005.4
20260505080508 12 173 0.0 0.0 0.00 0.89 0.00 90 1005.1
20260505080021 12 173 0.0 0.0 0.00 0.89 0.00 90 1004.9
20260505075506 12 173 0.0 0.0 0.00 0.89 0.00 91 1004.8
20260505075007 12 173 0.0 0.0 0.00 0.89 0.00 91 1004.7
20260505074524 12 173 0.0 4.8 0.00 0.89 0.00 92 1004.9
20260505074007 12 173 0.0 6.4 0.00 0.89 0.00 92 1004.9
20260505073508 12 216 3.2 6.4 0.00 0.89 0.00 92 1005.0
20260505073043 12 221 6.4 6.4 0.00 0.89 0.00 92 1005.0
20260505072505 12 240 3.2 6.4 0.00 0.89 0.00 91 1004.9
20260505072007 13 243 3.2 6.4 0.00 0.89 0.00 91 1005.0
20260505071519 13 264 3.2 6.4 0.00 0.89 0.00 91 1004.8
20260505071004 13 262 4.8 8.0 0.00 0.89 0.00 91 1004.5
20260505070509 13 255 4.8 8.0 0.00 0.89 0.00 91 1004.3
20260505070022 13 270 4.8 8.0 0.00 0.89 0.00 91 1004.3
20260505065508 13 266 4.8 6.4 0.00 0.89 0.00 90 1004.2
20260505065006 13 228 4.8 8.0 0.00 0.89 0.00 90 1004.0
20260505064536 13 217 4.8 9.7 0.00 0.89 0.00 89 1004.0
20260505064007 13 225 6.4 11.3 0.00 0.89 0.00 88 1003.9
20260505063509 13 249 8.0 11.3 0.00 0.89 0.00 89 1004.2
20260505063026 13 234 9.7 11.3 0.00 0.89 0.00 90 1004.2
20260505062509 13 255 6.4 8.0 0.00 0.89 0.00 89 1003.8
20260505062011 13 270 4.8 8.0 0.00 0.89 0.00 88 1003.6
20260505061540 13 266 6.4 9.7 0.00 0.89 0.00 88 1003.6
20260505061003 14 275 4.8 9.7 0.00 0.89 0.00 88 1003.6
20260505060508 14 272 6.4 8.0 0.00 0.89 0.00 88 1003.4
20260505060020 14 271 6.4 8.0 0.00 0.89 0.00 87 1003.2
20260505055506 14 295 0.0 8.0 0.00 0.89 0.00 88 1002.9
20260505055007 14 295 3.2 8.0 0.00 0.89 0.00 87 1002.9
20260505054532 15 352 1.6 8.0 0.00 0.89 0.00 87 1002.9
20260505054012 15 311 0.0 12.9 0.00 0.89 0.00 85 1003.1
20260505053511 15 299 8.0 12.9 0.00 0.89 0.00 83 1002.9
20260505053030 15 300 9.7 11.3 0.00 0.89 0.00 83 1002.9
20260505052509 15 290 8.0 11.3 0.00 0.89 0.00 84 1002.9
20260505052008 15 295 8.0 11.3 0.03 0.89 0.00 85 1002.8
20260505051526 14 288 3.2 8.0 0.03 0.89 0.00 88 1002.6
20260505051014 15 269 6.4 8.0 0.03 0.89 0.00 89 1002.6
20260505050507 14 269 6.4 8.0 0.03 0.89 0.00 89 1002.4
20260505041512 14 249 6.4 8.0 0.13 0.86 0.86 91 1002.1
20260505041004 14 240 0.0 6.4 0.20 0.86 0.86 92 1001.9
20260505040506 14 15 1.6 6.4 0.23 0.86 0.86 91 1001.9
20260505040015 14 259 3.2 6.4 0.25 0.86 0.86 89 1001.4
20260505035505 14 301 0.0 11.3 0.33 0.86 0.86 90 1001.8
20260505035003 14 340 3.2 11.3 0.48 0.86 0.86 89 1002.0
20260505034517 13 129 1.6 4.8 0.64 0.86 0.86 90 1001.9
20260505034009 13 301 0.0 16.1 0.84 0.84 0.84 91 1003.0
20260505033506 13 293 3.2 16.1 0.81 0.81 0.81 89 1003.3
20260505033022 13 295 3.2 8.0 0.79 0.79 0.79 90 1003.6
20260505032503 13 264 1.6 9.7 0.79 0.79 0.79 91 1003.4
20260505032003 13 270 4.8 9.7 0.76 0.76 0.76 91 1003.7
20260505031519 13 41 0.0 6.4 0.74 0.74 0.74 91 1003.4
20260505031003 13 309 0.0 4.8 0.66 0.66 0.66 90 1003.7
20260505030503 13 63 1.6 4.8 0.64 0.64 0.64 89 1003.4
20260505030012 13 17 1.6 4.8 0.61 0.61 0.61 87 1003.5
20260505025504 14 54 1.6 8.0 0.53 0.53 0.53 84 1003.6
20260505025004 15 319 1.6 11.3 0.38 0.38 0.38 79 1003.8
20260505024525 16 158 3.2 12.9 0.23 0.23 0.23 73 1003.6
20260505024003 17 281 3.2 22.5 0.00 0.00 0.00 66 1003.5
20260505023507 18 309 8.0 48.3 0.00 0.00 0.00 58 1003.4
20260505023019 20 9 17.7 48.3 0.00 0.00 0.00 60 1003.4
20260505022506 20 219 16.1 22.5 0.00 0.00 0.00 64 1001.5
20260505022007 20 225 17.7 22.5 0.00 0.00 0.00 63 1001.3
20260505021526 20 225 17.7 22.5 0.00 0.00 0.00 63 1001.2
20260505021006 20 224 17.7 27.4 0.00 0.00 0.00 62 1001.1
20260505020503 20 210 19.3 27.4 0.00 0.00 0.00 61 1001.0
20260505020006 20 218 22.5 27.4 0.00 0.00 0.00 61 1001.0
20260505015504 20 233 20.9 27.4 0.00 0.00 0.00 61 1001.0
20260505015004 20 217 20.9 27.4 0.00 0.00 0.00 60 1001.0
20260505014512 20 211 22.5 32.2 0.00 0.00 0.00 60 1000.9
20260505014003 20 216 25.7 32.2 0.00 0.00 0.00 59 1000.8
20260505013509 20 219 25.7 33.8 0.00 0.00 0.00 59 1000.8
20260505013015 21 225 22.5 35.4 0.00 0.00 0.00 58 1000.7
20260505012506 21 240 29.0 35.4 0.00 0.00 0.00 58 1000.7
20260505012007 21 221 24.1 33.8 0.00 0.00 0.00 59 1000.6
20260505011006 21 217 22.5 30.6 0.00 0.00 0.00 59 1000.6
20260505010508 21 214 22.5 30.6 0.00 0.00 0.00 59 1000.5
20260505010022 21 222 22.5 32.2 0.00 0.00 0.00 59 1000.4
20260505005503 21 214 24.1 35.4 0.00 0.00 0.00 58 1000.3
20260505005004 21 238 24.1 35.4 0.00 0.00 0.00 58 1000.1
20260505004517 21 223 27.4 38.6 0.00 0.00 0.00 57 999.9
20260505004003 21 217 29.0 38.6 0.00 0.00 0.00 57 999.9
20260505003503 21 222 27.4 38.6 0.00 0.00 0.00 58 999.9
20260505003012 21 229 25.7 32.2 0.00 0.00 0.00 58 1000.0
20260505002509 21 226 24.1 32.2 0.00 0.00 0.00 58 1000.2
20260505002012 22 221 24.1 38.6 0.00 0.00 0.00 57 1000.2
20260505001514 22 236 27.4 38.6 0.00 0.00 0.00 56 1000.2
20260505001010 22 224 27.4 46.7 0.00 0.00 0.00 55 1000.1
20260505000508 22 225 33.8 48.3 0.00 0.00 0.00 54 1000.0
20260505000035 22 233 38.6 53.1 0.00 0.00 0.00 53 999.9
20260504235507 23 229 35.4 53.1 0.00 0.00 0.00 52 999.7
20260504235009 23 248 30.6 48.3 0.00 0.00 0.00 52 999.7
20260504234524 23 229 35.4 49.9 0.00 0.00 0.00 52 999.6
20260504234003 23 238 35.4 49.9 0.00 0.00 0.00 52 999.7
20260504233504 23 226 40.2 51.5 0.00 0.00 0.00 51 999.7
20260504233008 23 224 40.2 53.1 0.00 0.00 0.00 51 999.7
20260504232505 23 233 38.6 53.1 0.00 0.00 0.00 50 999.7
20260504232004 23 238 40.2 51.5 0.00 0.00 0.00 50 999.8
20260504231510 24 224 40.2 51.5 0.00 0.00 0.00 49 999.9
20260504231004 24 235 38.6 54.7 0.00 0.00 0.00 50 1000.0
20260504230507 24 242 43.5 56.3 0.00 0.00 0.00 49 1000.1
20260504230016 24 227 40.2 56.3 0.00 0.00 0.00 49 1000.2
20260504225507 24 232 38.6 53.1 0.00 0.00 0.00 49 1000.3
20260504225012 24 238 37.0 53.1 0.00 0.00 0.00 48 1000.3
20260504224521 24 245 40.2 51.5 0.00 0.00 0.00 47 1000.3
20260504224011 24 236 37.0 54.7 0.00 0.00 0.00 48 1000.4
20260504223006 24 225 43.5 53.1 0.00 0.00 0.00 47 1000.6
20260504222504 25 238 40.2 59.5 0.00 0.00 0.00 48 1000.7
20260504222003 25 236 41.8 59.5 0.00 0.00 0.00 47 1000.8
20260504221510 25 237 41.8 53.1 0.00 0.00 0.00 47 1000.9
20260504221008 25 237 40.2 53.1 0.00 0.00 0.00 47 1000.8
20260504220505 25 255 43.5 54.7 0.00 0.00 0.00 47 1000.9
20260504220016 25 243 37.0 54.7 0.00 0.00 0.00 47 1000.9
20260504215507 25 238 41.8 56.3 0.00 0.00 0.00 46 1001.0
20260504215008 25 238 46.7 56.3 0.00 0.00 0.00 45 1000.9
20260504214519 25 229 38.6 57.9 0.00 0.00 0.00 46 1001.0
20260504214009 25 238 41.8 57.9 0.00 0.00 0.00 45 1001.2
20260504213508 25 257 38.6 53.1 0.00 0.00 0.00 44 1001.2
20260504213023 25 237 40.2 59.5 0.00 0.00 0.00 44 1001.1
20260504212507 25 238 37.0 59.5 0.00 0.00 0.00 45 1001.2
20260504212009 25 241 40.2 57.9 0.00 0.00 0.00 46 1001.2
20260504211506 25 236 40.2 57.9 0.00 0.00 0.00 45 1001.2
20260504211004 25 227 41.8 54.7 0.00 0.00 0.00 44 1001.2
20260504210504 25 250 43.5 51.5 0.00 0.00 0.00 44 1001.2
20260504210018 25 231 38.6 53.1 0.00 0.00 0.00 43 1001.3
20260504205505 25 229 38.6 54.7 0.00 0.00 0.00 44 1001.3
20260504205004 25 238 43.5 56.3 0.00 0.00 0.00 43 1001.2
20260504204516 25 247 43.5 56.3 0.00 0.00 0.00 44 1001.2
20260504204006 25 241 43.5 56.3 0.00 0.00 0.00 43 1001.3
20260504203514 25 235 40.2 56.3 0.00 0.00 0.00 43 1001.2
20260504203027 25 232 41.8 56.3 0.00 0.00 0.00 44 1001.4
20260504202513 25 228 37.0 59.5 0.00 0.00 0.00 43 1001.5
20260504202012 25 250 40.2 59.5 0.00 0.00 0.00 43 1001.3
20260504201524 25 245 41.8 57.9 0.00 0.00 0.00 43 1001.4
20260504201006 25 240 41.8 49.9 0.00 0.00 0.00 43 1001.5
20260504200509 26 233 37.0 48.3 0.00 0.00 0.00 43 1001.6
20260504200011 25 243 40.2 48.3 0.00 0.00 0.00 43 1001.6
20260504195503 25 248 38.6 54.7 0.00 0.00 0.00 43 1001.7
20260504195005 25 232 38.6 54.7 0.00 0.00 0.00 43 1001.8
20260504194514 25 245 35.4 51.5 0.00 0.00 0.00 42 1001.7
20260504194005 25 233 35.4 51.5 0.00 0.00 0.00 45 1001.7
20260504193505 25 225 32.2 45.1 0.00 0.00 0.00 47 1002.1
20260504193017 25 236 32.2 45.1 0.00 0.00 0.00 47 1001.8
20260504192505 25 239 37.0 45.1 0.00 0.00 0.00 47 1001.8
20260504192009 25 225 30.6 46.7 0.00 0.00 0.00 47 1001.8
20260504191507 25 228 37.0 48.3 0.00 0.00 0.00 47 1002.0
20260504191004 25 217 35.4 48.3 0.00 0.00 0.00 46 1002.2
20260504190502 25 234 33.8 48.3 0.00 0.00 0.00 47 1002.3
20260504190007 24 235 32.2 48.3 0.00 0.00 0.00 49 1002.3
20260504185504 24 226 29.0 48.3 0.00 0.00 0.00 49 1002.2
20260504185003 23 238 24.1 41.8 0.00 0.00 0.00 53 1002.3
20260504184514 23 238 30.6 45.1 0.00 0.00 0.00 53 1002.3
20260504184004 23 233 32.2 46.7 0.00 0.00 0.00 56 1002.5
20260504183504 22 235 27.4 46.7 0.00 0.00 0.00 57 1002.7
20260504183017 22 227 29.0 41.8 0.00 0.00 0.00 57 1002.7
20260504182505 22 236 29.0 41.8 0.00 0.00 0.00 55 1002.6
20260504182006 22 222 30.6 41.8 0.00 0.00 0.00 58 1002.7
20260504181522 22 230 32.2 41.8 0.00 0.00 0.00 56 1002.7
20260504181007 22 242 33.8 48.3 0.00 0.00 0.00 54 1002.9
20260504180513 22 227 35.4 48.3 0.00 0.00 0.00 54 1002.7
20260504180009 22 244 37.0 48.3 0.00 0.00 0.00 52 1002.7
20260504175503 22 242 35.4 45.1 0.00 0.00 0.00 51 1002.8
20260504175003 22 223 35.4 45.1 0.00 0.00 0.00 50 1002.8
20260504174509 23 236 37.0 53.1 0.00 0.00 0.00 49 1002.8
20260504174003 23 238 32.2 53.1 0.00 0.00 0.00 49 1002.9
20260504173504 23 238 43.5 53.1 0.00 0.00 0.00 48 1002.9
20260504173014 23 250 35.4 49.9 0.00 0.00 0.00 46 1003.0
20260504172504 23 251 37.0 53.1 0.00 0.00 0.00 46 1002.9
20260504172004 23 241 40.2 53.1 0.00 0.00 0.00 46 1002.8
20260504171518 23 244 35.4 48.3 0.00 0.00 0.00 48 1002.9
20260504170508 23 233 37.0 48.3 0.00 0.00 0.00 47 1002.9
20260504151003 21 229 29.0 38.6 0.00 0.00 0.00 54 1003.3
20260504150507 21 245 29.0 37.0 0.00 0.00 0.00 57 1003.3
20260504110508 11 219 11.3 16.1 0.00 0.00 0.00 86 1005.2
20260504100506 10 218 14.5 17.7 0.00 0.00 0.00 86 1005.4